Location: Sungai Lasa
(2.4500°N, 113.4500°E)
Time: 03:33:36
(UTC+00:00)

Cosmos 2227 Rocket - Pass Details

Date: 03 February 2023
Orbit: 839 x 844 km, 71.0° (Epoch: 26 March)

Event Time Altitude Azimuth Distance (km) Brightness Sun altitude
Rises 21:03:43 0° 175° (S) 3,390 5.6 -23.8°
Reaches altitude 10° 21:06:29 10° 163° (SSE) 2,455 5.0 -23.1°
Maximum altitude 21:11:15 28° 105° (ESE) 1,512 4.2 -22.0°
Drops below altitude 10° 21:16:01 10° 47° (NE) 2,452 5.0 -20.8°
Sets 21:18:45 0° 36° (NE) 3,385 5.6 -20.2°
